Time,TemperatureF,DewpointF,PressureIn,WindDirection,WindDirectionDegrees,WindSpeedMPH,WindSpeedGustMPH,Humidity,HourlyPrecipIn,Conditions,Clouds,dailyrainin,SolarRadiationWatts/m^2,SoftwareType,DateUTC
2013-05-03 00:02:00,37.0,20.0,-100.00,West,265,2.0,6.0,49,0.00,,,0.00,8.000000,,2013-05-03 06:02:00,
2013-05-03 00:12:00,37.0,20.0,-100.00,West,265,2.0,6.0,49,0.00,,,0.00,8.000000,,2013-05-03 06:12:00,
2013-05-03 00:21:00,37.0,20.0,-100.00,West,265,2.0,6.0,49,0.00,,,0.00,8.000000,,2013-05-03 06:21:00,
2013-05-03 00:32:00,37.0,20.0,-100.00,West,265,2.0,6.0,49,0.00,,,0.00,8.000000,,2013-05-03 06:32:00,
2013-05-03 01:01:00,36.0,18.0,-100.00,WSW,253,3.0,7.0,48,0.00,,,0.00,10.000000,,2013-05-03 07:01:00,
2013-05-03 01:11:00,36.0,18.0,-100.00,WSW,253,3.0,7.0,48,0.00,,,0.00,10.000000,,2013-05-03 07:11:00,
2013-05-03 01:21:00,36.0,18.0,-100.00,WSW,253,3.0,7.0,48,0.00,,,0.00,10.000000,,2013-05-03 07:21:00,
2013-05-03 01:31:00,36.0,18.0,-100.00,WSW,253,3.0,7.0,48,0.00,,,0.00,10.000000,,2013-05-03 07:31:00,
2013-05-03 02:02:00,35.0,19.0,-100.00,West,279,5.0,11.0,52,0.00,,,0.00,11.000000,,2013-05-03 08:02:00,
2013-05-03 02:11:00,35.0,19.0,-100.00,West,279,5.0,11.0,52,0.00,,,0.00,11.000000,,2013-05-03 08:11:00,
2013-05-03 02:21:00,35.0,19.0,-100.00,West,279,5.0,11.0,52,0.00,,,0.00,11.000000,,2013-05-03 08:21:00,
2013-05-03 02:32:00,35.0,19.0,-100.00,West,279,5.0,11.0,52,0.00,,,0.00,11.000000,,2013-05-03 08:32:00,
2013-05-03 03:01:00,37.0,20.0,-100.00,WNW,285,7.0,11.0,49,0.00,,,0.00,13.000000,,2013-05-03 09:01:00,
2013-05-03 03:12:00,37.0,20.0,-100.00,WNW,285,7.0,11.0,49,0.00,,,0.00,13.000000,,2013-05-03 09:12:00,
2013-05-03 03:21:00,37.0,20.0,-100.00,WNW,285,7.0,11.0,49,0.00,,,0.00,13.000000,,2013-05-03 09:21:00,
2013-05-03 03:32:00,37.0,20.0,-100.00,WNW,285,7.0,11.0,49,0.00,,,0.00,13.000000,,2013-05-03 09:32:00,
2013-05-03 04:03:00,37.0,20.0,-100.00,WNW,286,7.0,11.0,49,0.00,,,0.00,12.000000,,2013-05-03 10:03:00,
2013-05-03 04:12:00,37.0,20.0,-100.00,WNW,286,7.0,11.0,49,0.00,,,0.00,12.000000,,2013-05-03 10:12:00,
2013-05-03 04:22:00,37.0,20.0,-100.00,WNW,286,7.0,11.0,49,0.00,,,0.00,12.000000,,2013-05-03 10:22:00,
2013-05-03 04:32:00,37.0,20.0,-100.00,WNW,286,7.0,11.0,49,0.00,,,0.00,12.000000,,2013-05-03 10:32:00,
2013-05-03 05:02:00,35.0,19.0,-100.00,West,278,6.0,11.0,51,0.00,,,0.00,13.000000,,2013-05-03 11:02:00,
2013-05-03 05:11:00,35.0,19.0,-100.00,West,278,6.0,11.0,51,0.00,,,0.00,13.000000,,2013-05-03 11:11:00,
2013-05-03 05:22:00,35.0,19.0,-100.00,West,278,6.0,11.0,51,0.00,,,0.00,13.000000,,2013-05-03 11:22:00,
2013-05-03 05:32:00,35.0,19.0,-100.00,West,278,6.0,11.0,51,0.00,,,0.00,13.000000,,2013-05-03 11:32:00,
2013-05-03 06:02:00,36.0,17.0,-100.00,West,271,7.0,14.0,45,0.00,,,0.00,16.000000,,2013-05-03 12:02:00,
2013-05-03 06:11:00,36.0,17.0,-100.00,West,271,7.0,14.0,45,0.00,,,0.00,16.000000,,2013-05-03 12:11:00,
2013-05-03 06:21:00,36.0,17.0,-100.00,West,271,7.0,14.0,45,0.00,,,0.00,16.000000,,2013-05-03 12:21:00,
2013-05-03 06:32:00,36.0,17.0,-100.00,West,271,7.0,14.0,45,0.00,,,0.00,16.000000,,2013-05-03 12:32:00,
2013-05-03 07:01:00,37.0,14.0,-100.00,SW,226,2.0,13.0,39,0.00,,,0.00,21.000000,,2013-05-03 13:01:00,
2013-05-03 07:11:00,37.0,14.0,-100.00,SW,226,2.0,13.0,39,0.00,,,0.00,21.000000,,2013-05-03 13:11:00,
2013-05-03 07:22:00,37.0,14.0,-100.00,SW,226,2.0,13.0,39,0.00,,,0.00,21.000000,,2013-05-03 13:22:00,
2013-05-03 07:32:00,37.0,14.0,-100.00,SW,226,2.0,13.0,39,0.00,,,0.00,21.000000,,2013-05-03 13:32:00,
2013-05-03 08:02:00,41.0,15.0,-100.00,SSW,197,2.0,5.0,35,0.00,,,0.00,329.000000,,2013-05-03 14:02:00,
2013-05-03 08:11:00,41.0,15.0,-100.00,SSW,197,2.0,5.0,35,0.00,,,0.00,329.000000,,2013-05-03 14:11:00,
2013-05-03 08:22:00,41.0,15.0,-100.00,SSW,197,2.0,5.0,35,0.00,,,0.00,329.000000,,2013-05-03 14:22:00,
2013-05-03 08:32:00,41.0,15.0,-100.00,SSW,197,2.0,5.0,35,0.00,,,0.00,329.000000,,2013-05-03 14:32:00,
2013-05-03 09:01:00,49.0,24.0,-100.00,ENE,74,2.0,5.0,37,0.00,,,0.00,816.000000,,2013-05-03 15:01:00,
2013-05-03 09:11:00,49.0,24.0,-100.00,ENE,74,2.0,5.0,37,0.00,,,0.00,816.000000,,2013-05-03 15:11:00,
2013-05-03 09:22:00,49.0,24.0,-100.00,ENE,74,2.0,5.0,37,0.00,,,0.00,816.000000,,2013-05-03 15:22:00,
2013-05-03 09:32:00,49.0,24.0,-100.00,ENE,74,2.0,5.0,37,0.00,,,0.00,816.000000,,2013-05-03 15:32:00,
2013-05-03 10:03:00,51.0,18.0,-100.00,NE,47,5.0,9.0,27,0.00,,,0.00,798.000000,,2013-05-03 16:03:00,
2013-05-03 10:13:00,51.0,18.0,-100.00,NE,47,5.0,9.0,27,0.00,,,0.00,798.000000,,2013-05-03 16:13:00,
2013-05-03 10:23:00,51.0,18.0,-100.00,NE,47,5.0,9.0,27,0.00,,,0.00,798.000000,,2013-05-03 16:23:00,
2013-05-03 10:32:00,51.0,18.0,-100.00,NE,47,5.0,9.0,27,0.00,,,0.00,798.000000,,2013-05-03 16:32:00,
2013-05-03 11:02:00,51.0,19.0,-100.00,East,82,6.0,12.0,28,0.00,,,0.00,558.000000,,2013-05-03 17:02:00,
2013-05-03 11:12:00,51.0,19.0,-100.00,East,82,6.0,12.0,28,0.00,,,0.00,558.000000,,2013-05-03 17:12:00,
2013-05-03 11:23:00,51.0,19.0,-100.00,East,82,6.0,12.0,28,0.00,,,0.00,558.000000,,2013-05-03 17:23:00,
2013-05-03 11:32:00,51.0,19.0,-100.00,East,82,6.0,12.0,28,0.00,,,0.00,558.000000,,2013-05-03 17:32:00,
2013-05-03 12:01:00,51.0,18.0,-100.00,ENE,64,6.0,16.0,27,0.00,,,0.00,353.000000,,2013-05-03 18:01:00,
2013-05-03 12:12:00,51.0,18.0,-100.00,ENE,64,6.0,16.0,27,0.00,,,0.00,353.000000,,2013-05-03 18:12:00,
2013-05-03 12:21:00,51.0,18.0,-100.00,ENE,64,6.0,16.0,27,0.00,,,0.00,353.000000,,2013-05-03 18:21:00,
2013-05-03 12:32:00,51.0,18.0,-100.00,ENE,64,6.0,16.0,27,0.00,,,0.00,353.000000,,2013-05-03 18:32:00,
2013-05-03 13:01:00,51.0,19.0,-100.00,NE,49,6.0,17.0,28,0.00,,,0.00,189.000000,,2013-05-03 19:01:00,
2013-05-03 13:11:00,51.0,19.0,-100.00,NE,49,6.0,17.0,28,0.00,,,0.00,189.000000,,2013-05-03 19:11:00,
2013-05-03 13:21:00,51.0,19.0,-100.00,NE,49,6.0,17.0,28,0.00,,,0.00,189.000000,,2013-05-03 19:21:00,
2013-05-03 13:32:00,51.0,19.0,-100.00,NE,49,6.0,17.0,28,0.00,,,0.00,189.000000,,2013-05-03 19:32:00,
2013-05-03 14:02:00,53.0,22.0,-100.00,ESE,123,8.0,19.0,29,0.00,,,0.00,45.000000,,2013-05-03 20:02:00,
2013-05-03 14:11:00,53.0,22.0,-100.00,ESE,123,8.0,19.0,29,0.00,,,0.00,45.000000,,2013-05-03 20:11:00,
2013-05-03 14:21:00,53.0,22.0,-100.00,ESE,123,8.0,19.0,29,0.00,,,0.00,45.000000,,2013-05-03 20:21:00,
2013-05-03 14:31:00,53.0,22.0,-100.00,ESE,123,8.0,19.0,29,0.00,,,0.00,45.000000,,2013-05-03 20:31:00,
2013-05-03 15:01:00,54.0,21.0,-100.00,ESE,115,8.0,20.0,27,0.00,,,0.00,18.000000,,2013-05-03 21:01:00,
2013-05-03 15:11:00,54.0,21.0,-100.00,ESE,115,8.0,20.0,27,0.00,,,0.00,18.000000,,2013-05-03 21:11:00,
2013-05-03 15:21:00,54.0,21.0,-100.00,ESE,115,8.0,20.0,27,0.00,,,0.00,18.000000,,2013-05-03 21:21:00,
2013-05-03 15:33:00,54.0,21.0,-100.00,ESE,115,8.0,20.0,27,0.00,,,0.00,18.000000,,2013-05-03 21:33:00,
2013-05-03 16:03:00,54.0,22.0,-100.00,ESE,106,7.0,18.0,29,0.00,,,0.00,9.000000,,2013-05-03 22:03:00,
2013-05-03 16:13:00,54.0,22.0,-100.00,ESE,106,7.0,18.0,29,0.00,,,0.00,9.000000,,2013-05-03 22:13:00,
2013-05-03 16:22:00,54.0,22.0,-100.00,ESE,106,7.0,18.0,29,0.00,,,0.00,9.000000,,2013-05-03 22:22:00,
2013-05-03 16:32:00,54.0,22.0,-100.00,ESE,106,7.0,18.0,29,0.00,,,0.00,9.000000,,2013-05-03 22:32:00,
2013-05-03 17:02:00,55.0,22.0,-100.00,ESE,106,6.0,17.0,27,0.00,,,0.00,0.000000,,2013-05-03 23:02:00,
2013-05-03 17:11:00,55.0,22.0,-100.00,ESE,106,6.0,17.0,27,0.00,,,0.00,0.000000,,2013-05-03 23:11:00,
2013-05-03 17:22:00,55.0,22.0,-100.00,ESE,106,6.0,17.0,27,0.00,,,0.00,0.000000,,2013-05-03 23:22:00,
2013-05-03 17:31:00,55.0,22.0,-100.00,ESE,106,6.0,17.0,27,0.00,,,0.00,0.000000,,2013-05-03 23:31:00,
2013-05-03 18:01:00,54.0,22.0,-100.00,East,100,6.0,18.0,29,0.00,,,0.00,0.000000,,2013-05-04 00:01:00,
2013-05-03 18:11:00,54.0,22.0,-100.00,East,100,6.0,18.0,29,0.00,,,0.00,0.000000,,2013-05-04 00:11:00,
2013-05-03 18:23:00,54.0,22.0,-100.00,East,100,6.0,18.0,29,0.00,,,0.00,0.000000,,2013-05-04 00:23:00,
2013-05-03 18:31:00,54.0,22.0,-100.00,East,100,6.0,18.0,29,0.00,,,0.00,0.000000,,2013-05-04 00:31:00,
2013-05-03 19:01:00,53.0,22.0,-100.00,East,86,6.0,17.0,29,0.00,,,0.00,0.000000,,2013-05-04 01:01:00,
2013-05-03 19:11:00,53.0,22.0,-100.00,East,86,6.0,17.0,29,0.00,,,0.00,0.000000,,2013-05-04 01:11:00,
2013-05-03 19:21:00,53.0,22.0,-100.00,East,86,6.0,17.0,29,0.00,,,0.00,0.000000,,2013-05-04 01:21:00,
2013-05-03 19:32:00,53.0,22.0,-100.00,East,86,6.0,17.0,29,0.00,,,0.00,0.000000,,2013-05-04 01:32:00,
2013-05-03 20:02:00,49.0,22.0,-100.00,East,89,7.0,15.0,34,0.00,,,0.00,0.000000,,2013-05-04 02:02:00,
2013-05-03 20:11:00,49.0,22.0,-100.00,East,89,7.0,15.0,34,0.00,,,0.00,0.000000,,2013-05-04 02:11:00,
2013-05-03 20:21:00,49.0,22.0,-100.00,East,89,7.0,15.0,34,0.00,,,0.00,0.000000,,2013-05-04 02:21:00,
2013-05-03 20:32:00,49.0,22.0,-100.00,East,89,7.0,15.0,34,0.00,,,0.00,0.000000,,2013-05-04 02:32:00,
2013-05-03 21:02:00,42.0,19.0,-100.00,ENE,64,3.0,14.0,40,0.00,,,0.00,0.000000,,2013-05-04 03:02:00,
2013-05-03 21:11:00,42.0,19.0,-100.00,ENE,64,3.0,14.0,40,0.00,,,0.00,0.000000,,2013-05-04 03:11:00,
2013-05-03 21:22:00,42.0,19.0,-100.00,ENE,64,3.0,14.0,40,0.00,,,0.00,0.000000,,2013-05-04 03:22:00,
2013-05-03 21:33:00,42.0,19.0,-100.00,ENE,64,3.0,14.0,40,0.00,,,0.00,0.000000,,2013-05-04 03:33:00,
2013-05-03 22:02:00,42.0,19.0,-100.00,NNE,28,4.0,9.0,40,0.00,,,0.00,0.000000,,2013-05-04 04:02:00,
2013-05-03 22:12:00,42.0,19.0,-100.00,NNE,28,4.0,9.0,40,0.00,,,0.00,0.000000,,2013-05-04 04:12:00,
2013-05-03 22:22:00,42.0,19.0,-100.00,NNE,28,4.0,9.0,40,0.00,,,0.00,0.000000,,2013-05-04 04:22:00,
2013-05-03 22:32:00,42.0,19.0,-100.00,NNE,28,4.0,9.0,40,0.00,,,0.00,0.000000,,2013-05-04 04:32:00,
2013-05-03 23:02:00,39.0,17.0,-100.00,NNE,30,4.0,9.0,40,0.00,,,0.00,3.000000,,2013-05-04 05:02:00,
2013-05-03 23:12:00,39.0,17.0,-100.00,NNE,30,4.0,9.0,40,0.00,,,0.00,3.000000,,2013-05-04 05:12:00,
2013-05-03 23:22:00,39.0,17.0,-100.00,NNE,30,4.0,9.0,40,0.00,,,0.00,3.000000,,2013-05-04 05:22:00,
2013-05-03 23:32:00,39.0,17.0,-100.00,NNE,30,4.0,9.0,40,0.00,,,0.00,3.000000,,2013-05-04 05:32:00,